CST,Max TemperatureF,Mean TemperatureF,Min TemperatureF,Max Dew PointF,MeanDew PointF,Min DewpointF,Max Humidity, Mean Humidity, Min Humidity, Max Sea Level PressureIn, Mean Sea Level PressureIn, Min Sea Level PressureIn, Max VisibilityMiles, Mean VisibilityMiles, Min VisibilityMiles, Max Wind SpeedMPH, Mean Wind SpeedMPH, Max Gust SpeedMPH,PrecipitationIn, CloudCover, Events, WindDirDegrees
2013-2-1,46,30,14,21,10,3,73,52,27,30.41,30.30,30.14,10,10,10,13,7,16,0.00,0,,111
2013-2-2,51,38,24,30,24,16,74,56,41,30.24,30.18,30.14,10,10,10,12,5,17,0.00,1,,252
2013-2-3,53,44,35,27,23,18,70,46,26,30.27,30.15,29.96,10,10,10,12,7,,0.00,0,,215
2013-2-4,59,49,33,45,35,25,81,59,43,29.94,29.88,29.83,10,10,9,18,8,24,0.00,3,Thunderstorm,214
2013-2-5,64,47,30,46,33,27,93,63,30,30.05,29.98,29.90,10,10,5,12,2,17,0.00,0,,302
2013-2-6,64,50,35,39,34,28,81,55,37,30.09,30.02,29.94,10,10,10,14,7,17,0.00,1,,132
2013-2-7,55,50,42,52,46,36,94,82,71,30.07,29.92,29.86,10,9,1,15,9,22,0.02,8,,172
2013-2-8,51,42,33,36,30,27,81,65,40,30.27,30.20,30.08,10,9,6,14,9,23,0.00,3,,51
2013-2-9,48,40,33,39,31,25,87,71,43,30.20,30.04,29.83,10,9,7,16,10,22,0.12,4,Thunderstorm,129
2013-2-10,59,50,41,52,37,25,88,60,31,30.03,29.76,29.64,10,10,6,23,14,33,0.06,3,Thunderstorm,232
2013-2-11,51,40,30,28,24,19,75,57,28,30.18,30.11,30.03,10,10,10,8,3,,0.00,0,,307
2013-2-12,44,38,32,34,28,23,93,66,46,30.12,30.00,29.89,10,9,2,13,5,18,0.16,5,,48
2013-2-13,50,42,33,36,31,28,93,73,46,30.00,29.95,29.92,10,8,0,14,7,17,0.00,4,,264
2013-2-14,55,44,33,34,29,27,75,56,38,30.15,30.02,29.94,10,10,10,12,6,,0.00,1,,288
2013-2-15,44,34,24,27,19,12,80,54,33,30.32,30.25,30.15,10,10,10,14,8,22,0.00,2,,331
2013-2-16,37,29,21,25,18,12,86,59,41,30.31,30.22,30.10,10,10,4,15,6,21,0.00,7,,257
2013-2-17,62,45,28,28,23,14,64,42,27,30.10,29.98,29.85,10,10,10,20,7,26,0.00,0,,172
2013-2-18,57,46,35,50,37,23,82,61,38,30.11,29.80,29.60,10,10,9,25,17,36,0.12,4,Thunderstorm,244
2013-2-19,44,34,24,23,19,16,74,54,36,30.30,30.22,30.11,10,10,10,16,6,21,0.00,0,,326
2013-2-20,35,32,28,28,20,9,86,63,38,30.28,30.17,30.03,10,9,0,15,6,20,0.11,6,,92
2013-2-21,35,32,28,34,29,21,93,83,69,30.03,29.79,29.65,10,8,2,26,14,36,0.42,8,Thunderstorm,123
2013-2-22,37,29,21,28,20,16,86,68,52,30.09,30.00,29.85,10,10,9,16,10,23,0.01,2,,288
2013-2-23,44,32,21,25,20,16,93,64,39,30.08,29.99,29.93,10,10,5,10,1,,0.00,0,,260
2013-2-24,59,42,26,34,27,21,80,55,33,29.98,29.90,29.82,10,10,10,16,7,20,0.00,0,,126
2013-2-25,41,39,35,36,31,27,87,73,57,29.86,29.62,29.40,10,10,8,21,10,32,0.28,6,Thunderstorm,67
2013-2-26,35,34,32,32,29,28,87,83,81,29.85,29.57,29.35,10,6,1,17,10,28,0.07,8,,319
2013-2-27,39,36,32,28,27,25,81,75,65,30.05,29.95,29.84,10,8,4,20,11,26,0.00,6,,297
2013-2-28,35,32,28,27,25,21,86,73,65,30.16,30.12,30.05,10,10,7,13,8,22,0.00,6,,319